• In India
  • List of Countries
  • For 7 days
  • Water Temperature
  • Satellite Maps
  • Weather Map
  • Weather Widgets
  • user-avatar
    Login

    Hourly Weather Kliczkowy

    Today, 19 July, Thursday

    Time Temperature Precipitation Wind Pressure Humidity
    00:00 +18°C° 0.2 mm 3 mps 743 mmHg 94%
    01:00 +18°C° 0 mm 3 mps 743 mmHg 94%
    02:00 +18°C° 0.2 mm 3 mps 743 mmHg 95%
    03:00 +18°C° 0.2 mm 3 mps 743 mmHg 95%
    04:00 +18°C° 0.2 mm 3 mps 743 mmHg 95%
    05:00 +19°C° 0.3 mm 3 mps 743 mmHg 92%
    06:00 +20°C° 0.3 mm 3 mps 743 mmHg 89%
    07:00 +20°C° 0 mm 3 mps 743 mmHg 87%
    08:00 +21°C° 0.6 mm 3 mps 743 mmHg 85%
    09:00 +22°C° 0.6 mm 4 mps 743 mmHg 83%
    10:00 +23°C° 0.6 mm 4 mps 743 mmHg 80%
    11:00 +23°C° 0.6 mm 4 mps 744 mmHg 78%
    12:00 +23°C° 0.6 mm 4 mps 744 mmHg 77%
    13:00 +25°C° 0.6 mm 4 mps 744 mmHg 75%
    14:00 +23°C° 0.2 mm 4 mps 744 mmHg 76%
    15:00 +23°C° 0.2 mm 4 mps 744 mmHg 77%
    16:00 +23°C° 0.2 mm 4 mps 744 mmHg 77%
    17:00 +22°C° 0 mm 4 mps 744 mmHg 79%
    18:00 +21°C° 0 mm 4 mps 744 mmHg 82%
    19:00 +21°C° 0 mm 4 mps 744 mmHg 84%
    20:00 +20°C° 0 mm 4 mps 744 mmHg 85%
    21:00 +19°C° 0 mm 4 mps 744 mmHg 86%
    22:00 +19°C° 0 mm 4 mps 744 mmHg 87%
    23:00 +19°C° 0 mm 3 mps 744 mmHg 87%

    Tomorrow, 20 July, Friday

    Time Temperature Precipitation Wind Pressure Humidity
    00:00 +18°C° 0 mm 3 mps 744 mmHg 87%
    01:00 +18°C° 0 mm 3 mps 744 mmHg 88%
    02:00 +17°C° 0 mm 3 mps 744 mmHg 88%
    03:00 +17°C° 0 mm 3 mps 744 mmHg 88%
    04:00 +16°C° 0 mm 3 mps 744 mmHg 89%
    05:00 +18°C° 0 mm 4 mps 744 mmHg 84%
    06:00 +19°C° 0 mm 4 mps 744 mmHg 80%
    07:00 +20°C° 0 mm 4 mps 744 mmHg 76%
    08:00 +21°C° 0.1 mm 4 mps 744 mmHg 73%
    09:00 +23°C° 0.1 mm 5 mps 744 mmHg 69%
    10:00 +25°C° 0.1 mm 5 mps 744 mmHg 65%
    11:00 +25°C° 0.1 mm 5 mps 744 mmHg 63%
    12:00 +25°C° 0.1 mm 5 mps 744 mmHg 62%
    13:00 +25°C° 0.1 mm 5 mps 744 mmHg 60%
    14:00 +25°C° 0 mm 5 mps 744 mmHg 60%
    15:00 +25°C° 0 mm 5 mps 744 mmHg 59%
    16:00 +23°C° 0 mm 5 mps 744 mmHg 59%
    17:00 +22°C° 0 mm 4 mps 744 mmHg 63%
    18:00 +21°C° 0 mm 4 mps 744 mmHg 66%
    19:00 +19°C° 0 mm 3 mps 744 mmHg 70%
    20:00 +18°C° 0 mm 3 mps 744 mmHg 74%
    21:00 +17°C° 0 mm 3 mps 744 mmHg 78%
    22:00 +14°C° 0 mm 3 mps 744 mmHg 82%
    23:00 +14°C° 0 mm 3 mps 744 mmHg 84%

    Day after tomorrow, 21 July, Saturday

    Time Temperature Precipitation Wind Pressure Humidity
    00:00 +15°C° 0 mm 2 mps 744 mmHg 86%
    01:00 +14°C° 0 mm 2 mps 744 mmHg 89%
    02:00 +14°C° 0 mm 2 mps 743 mmHg 90%
    03:00 +14°C° 0 mm 2 mps 743 mmHg 92%
    04:00 +14°C° 0 mm 2 mps 743 mmHg 94%
    05:00 +14°C° 0 mm 3 mps 743 mmHg 89%
    06:00 +17°C° 0 mm 3 mps 744 mmHg 83%
    07:00 +19°C° 0 mm 3 mps 744 mmHg 78%
    08:00 +20°C° 0 mm 3 mps 744 mmHg 71%
    09:00 +22°C° 0 mm 3 mps 744 mmHg 64%
    10:00 +24°C° 0 mm 3 mps 744 mmHg 56%
    11:00 +25°C° 0 mm 3 mps 744 mmHg 54%
    12:00 +26°C° 0 mm 3 mps 744 mmHg 52%
    13:00 +26°C° 0 mm 3 mps 744 mmHg 50%
    14:00 +26°C° 0 mm 3 mps 744 mmHg 52%
    15:00 +26°C° 0 mm 3 mps 744 mmHg 53%
    16:00 +26°C° 0 mm 3 mps 744 mmHg 55%
    17:00 +24°C° 0 mm 3 mps 744 mmHg 61%
    18:00 +22°C° 0 mm 3 mps 744 mmHg 66%
    19:00 +21°C° 0 mm 2 mps 744 mmHg 72%
    20:00 +19°C° 0 mm 2 mps 744 mmHg 77%
    21:00 +18°C° 0 mm 2 mps 744 mmHg 82%
    22:00 +16°C° 0 mm 2 mps 744 mmHg 86%
    23:00 +16°C° 0 mm 2 mps 744 mmHg 87%

    22 July, Sunday

    Time Temperature Precipitation Wind Pressure Humidity
    00:00 +16°C° 0 mm 2 mps 744 mmHg 88%
    01:00 +15°C° 0 mm 2 mps 743 mmHg 89%
    02:00 +15°C° 0 mm 2 mps 743 mmHg 89%
    03:00 +15°C° 0 mm 1 mps 743 mmHg 89%
    04:00 +14°C° 0 mm 1 mps 743 mmHg 89%
    05:00 +16°C° 0 mm 2 mps 743 mmHg 83%
    06:00 +18°C° 0 mm 2 mps 744 mmHg 77%
    07:00 +20°C° 0 mm 2 mps 744 mmHg 71%
    08:00 +21°C° 0 mm 2 mps 744 mmHg 63%
    09:00 +24°C° 0 mm 2 mps 744 mmHg 56%
    10:00 +25°C° 0 mm 2 mps 744 mmHg 49%
    11:00 +26°C° 0 mm 2 mps 744 mmHg 47%
    12:00 +27°C° 0 mm 2 mps 744 mmHg 45%
    13:00 +27°C° 0 mm 2 mps 744 mmHg 42%
    14:00 +27°C° 0 mm 3 mps 744 mmHg 44%
    15:00 +27°C° 0 mm 3 mps 744 mmHg 46%
    16:00 +27°C° 0 mm 3 mps 744 mmHg 47%
    17:00 +25°C° 0 mm 2 mps 744 mmHg 54%
    18:00 +24°C° 0 mm 2 mps 743 mmHg 61%
    19:00 +23°C° 0 mm 2 mps 743 mmHg 69%
    20:00 +21°C° 0 mm 1 mps 744 mmHg 72%
    21:00 +20°C° 0 mm 1 mps 744 mmHg 76%
    22:00 +19°C° 0 mm 1 mps 744 mmHg 80%
    23:00 +18°C° 0 mm 1 mps 744 mmHg 81%

    23 July, Monday

    Time Temperature Precipitation Wind Pressure Humidity
    00:00 +18°C° 0 mm 1 mps 744 mmHg 82%
    01:00 +18°C° 0 mm 1 mps 744 mmHg 83%
    02:00 +16°C° 0 mm 1 mps 744 mmHg 85%
    03:00 +16°C° 0 mm 1 mps 744 mmHg 87%
    04:00 +16°C° 0 mm 1 mps 744 mmHg 89%
    05:00 +17°C° 0 mm 2 mps 744 mmHg 84%
    06:00 +19°C° 0 mm 2 mps 744 mmHg 79%
    07:00 +20°C° 0 mm 2 mps 745 mmHg 73%
    08:00 +21°C° 0 mm 2 mps 745 mmHg 67%
    09:00 +24°C° 0 mm 3 mps 745 mmHg 61%
    10:00 +25°C° 0 mm 3 mps 745 mmHg 55%
    11:00 +25°C° 0 mm 3 mps 745 mmHg 54%
    12:00 +26°C° 0 mm 3 mps 745 mmHg 53%
    13:00 +26°C° 0 mm 4 mps 745 mmHg 52%
    14:00 +26°C° 0 mm 4 mps 745 mmHg 54%
    15:00 +25°C° 0 mm 4 mps 745 mmHg 57%
    16:00 +25°C° 0 mm 4 mps 745 mmHg 60%
    17:00 +23°C° 0 mm 4 mps 745 mmHg 66%
    18:00 +21°C° 0 mm 3 mps 745 mmHg 71%
    19:00 +20°C° 0 mm 3 mps 745 mmHg 77%
    20:00 +19°C° 0 mm 3 mps 745 mmHg 82%
    21:00 +18°C° 0 mm 2 mps 745 mmHg 87%
    22:00 +17°C° 0 mm 2 mps 745 mmHg 92%
    23:00 +16°C° 0 mm 2 mps 745 mmHg 92%

    24 July, Tuesday

    Time Temperature Precipitation Wind Pressure Humidity
    00:00 +16°C° 0 mm 2 mps 745 mmHg 93%
    01:00 +16°C° 0 mm 2 mps 745 mmHg 93%
    02:00 +16°C° 0 mm 2 mps 745 mmHg 93%
    03:00 +16°C° 0 mm 2 mps 745 mmHg 94%
    04:00 +16°C° 0 mm 2 mps 745 mmHg 94%
    05:00 +18°C° 0 mm 3 mps 745 mmHg 89%
    06:00 +19°C° 0 mm 3 mps 746 mmHg 84%
    07:00 +21°C° 0 mm 3 mps 746 mmHg 79%
    08:00 +24°C° 0 mm 3 mps 746 mmHg 73%
    09:00 +25°C° 0 mm 3 mps 746 mmHg 67%
    10:00 +26°C° 0 mm 3 mps 746 mmHg 61%
    11:00 +27°C° 0 mm 3 mps 746 mmHg 60%
    12:00 +27°C° 0 mm 3 mps 746 mmHg 59%
    13:00 +27°C° 0 mm 3 mps 746 mmHg 57%
    14:00 +27°C° 0 mm 3 mps 746 mmHg 58%
    15:00 +27°C° 0 mm 3 mps 746 mmHg 58%
    16:00 +27°C° 0 mm 3 mps 746 mmHg 59%
    17:00 +26°C° 0 mm 3 mps 746 mmHg 64%
    18:00 +25°C° 0 mm 3 mps 746 mmHg 69%
    19:00 +24°C° 0 mm 2 mps 746 mmHg 74%
    20:00 +21°C° 0 mm 2 mps 747 mmHg 79%
    21:00 +21°C° 0 mm 1 mps 747 mmHg 84%
    22:00 +20°C° 0 mm 1 mps 747 mmHg 89%
    23:00 +19°C° 0 mm 1 mps 747 mmHg 89%
    Show more